This demonstration page uses our WeatherBlox Daily Observations layout. Learn more.

Left ArrowRight Arrow

38.20091, -84.87328

Hourly Observations for February 5, 2022

Temp ( °F °C ) Dew Point ( °F °C ) Humidity (%) Winds ( mph kmh ) Pressure ( in mb ) Visibility ( mi km ) Precip ( " mm )
12:20 am 00:20 Cloudy 23 -5 18 -7.8 81 81 W 8 13 30.43 1030 10 16 0.00 0.00
12:53 am 00:53 Cloudy 22 -5.6 18 -7.8 85 85 WSW 7 11 30.41 1030 10 16 0.00 0.00
1:53 am 01:53 Mostly Clear 20 -6.7 17 -8.3 89 89 WSW 7 11 30.41 1030 10 16 0.00 0.00
2:53 am 02:53 Mostly Cloudy 19 -7.2 16 -8.9 88 88 WSW 7 11 30.42 1030 10 16 0.00 0.00
4:53 am 04:53 Clear 15 -9.4 13 -10.6 91 91 WSW 5 7 30.43 1031 10 16 0.00 0.00
5:53 am 05:53 Clear 16 -8.9 12 -11.1 84 84 W 3 6 30.46 1032 10 16 0.00 0.00
6:53 am 06:53 Clear 15 -9.4 11 -11.7 84 84 WNW 3 6 30.49 1032 10 16 0.00 0.00
7:53 am 07:53 Mostly Sunny 15 -9.4 10 -12.2 80 80 W 5 7 30.51 1033 10 16 0.00 0.00
8:53 am 08:53 Sunny 16 -8.9 11 -11.7 80 80 NW 7 11 30.53 1034 10 16 0.00 0.00
9:53 am 09:53 Mostly Sunny 19 -7.2 13 -10.6 77 77 N 6 9 30.54 1034 10 16 0.00 0.00
10:24 am 10:24 Mostly Cloudy 20 -6.7 14 -10 78 78 NNW 3 6 30.57 1035 10 16 0.00 0.00
10:53 am 10:53 Mostly Cloudy 21 -6.1 15 -9.4 78 78 Calm 30.55 1034 10 16 0.00 0.00
11:28 am 11:28 Partly Cloudy 22 -5.6 15 -9.4 75 75 Calm 30.58 1036 10 16 0.00 0.00
11:38 am 11:38 Mostly Cloudy 23 -5 16 -8.9 74 74 Calm 30.57 1035 10 16 0.00 0.00
11:53 am 11:53 Cloudy 23 -5 16 -8.9 74 74 SSW 3 6 30.54 1034 10 16 0.00 0.00
12:53 pm 12:53 Mostly Cloudy 25 -3.9 14 -10 63 63 Calm 30.53 1034 10 16 0.00 0.00
1:02 pm 13:02 Partly Cloudy 24 -4.4 14 -10 65 65 SE 3 6 30.56 1035 10 16 0.00 0.00
1:29 pm 13:29 Mostly Cloudy 23 -5 14 -10 68 68 Calm 30.55 1034 10 16 0.00 0.00
1:53 pm 13:53 Cloudy 24 -4.4 15 -9.4 68 68 SW 5 7 30.52 1033 10 16 0.00 0.00
2:53 pm 14:53 Mostly Cloudy 25 -3.9 15 -9.4 66 66 WSW 3 6 30.51 1033 10 16 0.00 0.00
3:16 pm 15:16 Partly Cloudy 26 -3.3 15 -9.4 63 63 Calm 30.53 1034 10 16 0.00 0.00
3:25 pm 15:25 Mostly Cloudy 26 -3.3 15 -9.4 63 63 Calm 30.52 1034 10 16 0.00 0.00
3:53 pm 15:53 Cloudy 26 -3.3 15 -9.4 63 63 VRB 3 6 30.51 1033 10 16 0.00 0.00
4:25 pm 16:25 Partly Cloudy 26 -3.3 15 -9.4 63 63 Calm 30.52 1034 10 16 0.00 0.00
4:53 pm 16:53 Sunny 27 -2.8 16 -8.9 63 63 Calm 30.49 1033 10 16 0.00 0.00
5:53 pm 17:53 Sunny 26 -3.3 15 -9.4 63 63 NE 3 6 30.49 1033 10 16 0.00 0.00
6:53 pm 18:53 Clear 24 -4.4 16 -8.9 71 71 E 5 7 30.48 1032 10 16 0.00 0.00
7:53 pm 19:53 Clear 23 -5 16 -8.9 74 74 Calm 30.47 1032 10 16 0.00 0.00
8:53 pm 20:53 Clear 22 -5.6 17 -8.3 82 82 ESE 3 6 30.46 1032 10 16 0.00 0.00
9:53 pm 21:53 Clear 21 -6.1 16 -8.9 81 81 ESE 5 7 30.45 1031 9 14 0.00 0.00
10:53 pm 22:53 Clear 20 -6.7 16 -8.9 85 85 Calm 30.44 1031 9 14 0.00 0.00

Powered by AerisWeather